Location: Miles
(41.4492°N, 81.6087°W)
Time: 19:52:12
(UTC+00:00)

Tiros 1 despin weight - Pass Details

Date: 13 September 2024
Orbit: 573 x 615 km, 48.2° (Epoch: 04 October)

Event Time Altitude Azimuth Distance (km) Brightness Sun altitude
Rises 14:56:09 0° 297° (WNW) 2,891 ? 39.9°
Reaches altitude 10° 14:58:29 10° 294° (WNW) 1,980 ? 40.2°
Maximum altitude 15:03:00 65° 213° (SSW) 672 ? 40.9°
Drops below altitude 10° 15:07:27 10° 132° (SE) 1,950 ? 41.5°
Sets 15:09:44 0° 129° (SE) 2,843 ? 41.8°
